Weather Service Report


716 
ASUS46 KPQR 250010
RWROR 

OREGON REGIONAL WEATHER ROUNDUP
NATIONAL WEATHER SERVICE PORTLAND OR
500 PM PDT FRI OCT 24 2014

NOTE: "FAIR" INDICATES FEW OR NO CLOUDS BELOW 12,000 FEET WITH
NO SIGNIFICANT WEATHER AND/OR OBSTRUCTIONS TO VISIBILITY.

ORZ001>013-250100-
NORTHWEST OREGON

  
CITY           SKY/WX    TMP DP  RH WIND       PRES   REMARKS
ASTORIA        LGT RAIN  54  50  86 E9        29.81F                  
6HR MIN TEMP:  54; 6HR MAX TEMP:  57; 6HR PCP:  0.03;                

NEWPORT        LGT RAIN  52  50  93 E17G23    29.77F                  
PORTLAND       LGT RAIN  55  51  86 NE5       29.84F                  
6HR MIN TEMP:  54; 6HR MAX TEMP:  56; 6HR PCP:  0.08;                

VANCOUVER WA   LGT RAIN  55  51  86 CALM      29.84F FOG              
6HR MIN TEMP:  53; 6HR MAX TEMP:  55; 6HR PCP:  0.08;                

SCAPPOOSE      LGT RAIN  55  51  86 N5        29.84F                  
6HR MIN TEMP:  54; 6HR MAX TEMP:  56; 6HR PCP:  0.06;                

HILLSBORO      LGT RAIN  54  51  90 NE3       29.82F                  
6HR MIN TEMP:  52; 6HR MAX TEMP:  55; 6HR PCP:  0.09;                

AURORA         LGT RAIN  53  51  93 NE5       29.83F                  
6HR MIN TEMP:  53; 6HR MAX TEMP:  54; 6HR PCP:  0.14;                

MCMINNVILLE    LGT RAIN  54  51  90 N6        29.83F FOG              
6HR MIN TEMP:  53; 6HR MAX TEMP:  54; 6HR PCP:  0.16;                

SALEM          LGT RAIN  53  51  93 N6        29.81F FOG              
6HR MIN TEMP:  53; 6HR MAX TEMP:  54; 6HR PCP:  0.32;                

CORVALLIS      CLOUDY    54  52  94 CALM      29.83F                  
EUGENE         CLOUDY    53  50  89 N13       29.81F                  
6HR MIN TEMP:  52; 6HR MAX TEMP:  53; 6HR PCP:  0.29;                

$$

ORZ021-028-250100-
SOUTHWEST OREGON

  
CITY           SKY/WX    TMP DP  RH WIND       PRES   REMARKS
NORTH BEND     CLOUDY    63  61  94 SE5       29.72F                  
6HR MIN TEMP:  55; 6HR MAX TEMP:  63; 6HR PCP:  0.26;                

BROOKINGS      CLOUDY    66  56  70 SE9       29.74F                  
ROSEBURG       CLOUDY    59  53  80 N6        29.76F                  
6HR MIN TEMP:  54; 6HR MAX TEMP:  60; 6HR PCP:  0.09;                

SEXTON SUMMIT  SUNNY     52  48  86 S9        29.79F                  
6HR MIN TEMP:  44; 6HR MAX TEMP:  55; 6HR PCP:  0.01;                

MEDFORD        SUNNY     69  54  58 NW5       29.73F                  
6HR MIN TEMP:  54; 6HR MAX TEMP:  70;                                

$$

ORZ009-041-250100-
COLUMBIA GORGE

  
CITY           SKY/WX    TMP DP  RH WIND       PRES   REMARKS
TROUTDALE      LGT RAIN  54  49  83 E20       29.82F                  
6HR MIN TEMP:  54; 6HR MAX TEMP:  57; 6HR PCP:  0.08;                

THE DALLES     LGT RAIN  52  49  89 SW3       29.96F                  
6HR MIN TEMP:  51; 6HR MAX TEMP:  54; 6HR PCP:  0.15;                

$$

ORZ029>031-042>050-061>064-250100-
EASTERN OREGON

  
CITY           SKY/WX    TMP DP  RH WIND       PRES   REMARKS
REDMOND        MOSUNNY   54  46  74 N3        29.89F                  
6HR MIN TEMP:  49; 6HR MAX TEMP:  55; 6HR PCP:  0.02;                

BEND           PTCLDY    54  46  76 N6        29.90F                  
KLAMATH FALLS  SUNNY     60  38  43 S30G37    29.87F                  
6HR MIN TEMP:  54; 6HR MAX TEMP:  63;                                

LAKEVIEW       SUNNY     63  36  36 S13       29.94F                  
HERMISTON      LGT RAIN  54  49  83 NE7       29.96F                  
6HR MIN TEMP:  53; 6HR MAX TEMP:  59; 6HR PCP:  0.03;                

PENDLETON      LGT RAIN  52  47  83 NE15      29.95F                  
6HR MIN TEMP:  52; 6HR MAX TEMP:  58; 6HR PCP:  0.01;                

JOHN DAY       CLEAR     58  45  61 CALM      29.95F                  
MEACHAM        CLOUDY    48  46  93 CALM      29.98F                  
6HR MIN TEMP:  47; 6HR MAX TEMP:  50; 6HR PCP:  0.02;                

LA GRANDE      CLOUDY    57  39  51 S12       29.98S                  
6HR MIN TEMP:  50; 6HR MAX TEMP:  57; 6HR PCP:  0.02;                

BAKER CITY     CLOUDY    52  46  80 E8        30.01F                  
6HR MIN TEMP:  49; 6HR MAX TEMP:  53; 6HR PCP:  0.02;                

BURNS          CLEAR     56  45  66 NE13      29.96F                  
6HR MIN TEMP:  48; 6HR MAX TEMP:  58;                                

ROME             N/A     73  24  16 SW13G18   29.93F                  
6HR MIN TEMP:  56; 6HR MAX TEMP:  74;                                

ONTARIO        CLEAR     62  49  62 N5        29.99F                  
6HR MIN TEMP:  54; 6HR MAX TEMP:  62;                                

$$

Return to Home page


Western Regional Climate Center, wrcc@dri.edu